TimeMST,TemperatureF,Dew PointF,Humidity,Sea Level PressureIn,VisibilityMPH,Wind Direction,Wind SpeedMPH,Gust SpeedMPH,PrecipitationIn,Events,Conditions,WindDirDegrees,DateUTC
12:53 AM,32.0,14.0,48,29.87,10.0,North,5.8,-,N/A,,Overcast,360,2013-03-04 07:53:00
1:53 AM,30.9,16.0,54,29.89,10.0,NNE,3.5,-,N/A,,Overcast,30,2013-03-04 08:53:00
2:53 AM,28.9,15.1,56,29.91,10.0,North,13.8,26.5,N/A,,Overcast,360,2013-03-04 09:53:00
3:53 AM,27.0,14.0,58,29.93,10.0,North,13.8,-,N/A,,Overcast,350,2013-03-04 10:53:00
4:53 AM,26.1,10.0,51,29.94,10.0,North,28.8,39.1,N/A,,Clear,350,2013-03-04 11:53:00
5:53 AM,25.0,9.0,51,29.98,10.0,North,26.5,38.0,N/A,,Clear,350,2013-03-04 12:53:00
6:53 AM,24.1,8.1,51,30.06,10.0,North,27.6,39.1,N/A,,Mostly Cloudy,350,2013-03-04 13:53:00
7:53 AM,24.1,10.0,55,30.12,10.0,North,19.6,34.5,N/A,,Clear,350,2013-03-04 14:53:00
8:53 AM,24.1,10.9,57,30.16,10.0,North,27.6,38.0,N/A,,Scattered Clouds,350,2013-03-04 15:53:00
9:53 AM,26.1,12.9,58,30.18,10.0,North,24.2,34.5,N/A,,Overcast,360,2013-03-04 16:53:00
10:53 AM,25.0,12.9,60,30.20,10.0,North,26.5,33.4,N/A,,Scattered Clouds,360,2013-03-04 17:53:00
11:53 AM,26.1,10.9,53,30.22,10.0,North,25.3,38.0,N/A,,Clear,350,2013-03-04 18:53:00
12:53 PM,26.1,12.9,58,30.23,10.0,North,27.6,35.7,N/A,,Mostly Cloudy,350,2013-03-04 19:53:00
1:53 PM,27.0,12.9,56,30.25,10.0,NNW,19.6,28.8,N/A,,Clear,340,2013-03-04 20:53:00
2:53 PM,28.0,12.0,51,30.27,10.0,NNW,20.7,27.6,N/A,,Clear,340,2013-03-04 21:53:00
3:53 PM,28.0,12.0,51,30.30,10.0,North,19.6,27.6,N/A,,Clear,350,2013-03-04 22:53:00
4:53 PM,27.0,10.9,51,30.34,10.0,North,11.5,-,N/A,,Clear,360,2013-03-04 23:53:00
5:53 PM,25.0,10.0,53,30.36,10.0,North,12.7,-,N/A,,Clear,10,2013-03-05 00:53:00
6:53 PM,24.1,12.0,60,30.39,10.0,Calm,Calm,-,N/A,,Clear,0,2013-03-05 01:53:00
7:53 PM,21.0,12.9,71,30.40,10.0,WSW,4.6,-,N/A,,Clear,250,2013-03-05 02:53:00
8:53 PM,21.0,12.0,68,30.41,10.0,West,9.2,-,N/A,,Clear,260,2013-03-05 03:53:00
9:53 PM,18.0,12.0,78,30.42,10.0,SSW,5.8,-,N/A,,Clear,200,2013-03-05 04:53:00
10:53 PM,18.0,12.0,78,30.43,10.0,SW,4.6,-,N/A,,Clear,230,2013-03-05 05:53:00